This is the latest recevied weather packets stored in our database for station/object W3BRL. If no packets are shown the sender has not sent any weather packets the latest 10 day(s).
| Time | Temp. | Humidity | Pressure | Rain* | Wind** | Luminosity | Snow |
|---|---|---|---|---|---|---|---|
| 1777482042 | 15° C | 98% | 1005.2 hPa | 0 mm | - | 164 W/m² | - |
| 1777481739 | 15° C | 98% | 1005.4 hPa | 0 mm | - | 162 W/m² | - |
| 1777481437 | 15° C | 98% | 1005.6 hPa | 1.27 mm | - | 237 W/m² | - |
| 1777481132 | 15° C | 98% | 1005.9 hPa | 1.27 mm | - | 169 W/m² | - |
| 1777480829 | 15° C | 98% | 1006 hPa | 0 mm | - | 224 W/m² | - |
| 1777480526 | 15° C | 98% | 1005.9 hPa | 0 mm | - | 157 W/m² | - |
| 1777480223 | 15° C | 98% | 1006 hPa | 0 mm | - | 153 W/m² | - |
| 1777479919 | 15° C | 98% | 1006.3 hPa | 0 mm | - | 72 W/m² | - |
| 1777479616 | 15° C | 98% | 1006.4 hPa | 1.78 mm | - | 35 W/m² | - |
| 1777479314 | 15° C | 98% | 1006.5 hPa | 4.83 mm | - | 31 W/m² | - |
| 1777479010 | 15° C | 98% | 1006.6 hPa | 10.67 mm | - | 39 W/m² | - |
| 1777478707 | 15° C | 98% | 1006.5 hPa | 10.67 mm | - | 79 W/m² | - |
| 1777478403 | 15° C | 98% | 1006.7 hPa | 6.1 mm | - | 59 W/m² | - |
| 1777478100 | 15° C | 98% | 1006.6 hPa | 3.05 mm | - | 135 W/m² | - |
| 1777477796 | 15° C | 98% | 1006.5 hPa | 0 mm | - | 75 W/m² | - |
| 1777477492 | 15° C | 98% | 1006.7 hPa | 0 mm | - | 52 W/m² | - |
| 1777477189 | 15° C | 98% | 1006.9 hPa | 1.27 mm | - | 196 W/m² | - |
| 1777476885 | 15° C | 98% | 1006.9 hPa | 3.05 mm | - | 264 W/m² | - |
| 1777476583 | 15° C | 98% | 1006.9 hPa | 3.05 mm | - | 203 W/m² | - |
| 1777476279 | 15° C | 98% | 1007.2 hPa | 1.27 mm | - | 161 W/m² | - |
| 1777475974 | 15° C | 98% | 1006.9 hPa | 3.05 mm | - | 222 W/m² | - |
| 1777475671 | 14.44° C | 98% | 1007.3 hPa | 4.83 mm | - | 182 W/m² | - |
| 1777475368 | 15° C | 98% | 1007.3 hPa | 3.05 mm | - | 115 W/m² | - |
| 1777475062 | 14.44° C | 98% | 1007.6 hPa | 1.27 mm | - | 78 W/m² | - |
| 1777474760 | 14.44° C | 98% | 1007.6 hPa | 0 mm | - | 130 W/m² | - |
* Rain latest hour (hover to see other rain measurements)
** Current wind speed in m/s (hover to see current wind gust speed)